IONOSFERA-M 2

Last updated on Sun Jun 21 2026 00:02:53 GMT+0000 (Coordinated Universal Time)

1 61736U 24199B 26171.39274542 .00000024 00000+0 30228-4 0 9995 2 61736 98.7169 44.4417 0000914 38.0352 322.0890 14.22758106131289
UTC large
Height (km)
Speed (km/s)
/
Latitude / Longitude
Inclination (degrees)
Orbital Period (minutes)
Azimuth
Elevation
Range (km)
Doppler Factor

Next 0 passes for location: London (51.5072 / 0.1276)

No passes found over London.
IONOSFERA-M 2